sat.trackr.live / text

‹ back to catalog

STARLINK-38041

NORAD 69742 · 2026-150D

PAYLOAD ACTIVE UNKNOWN

§ Identity

Operator
Country
US
Launch date
2026-07-02
Launch site
AFWTR
Launch vehicle
Mass (kg)
RCS (m²)

Purposes: comms

External: N2YO · Heavens-Above · Gunter

§ Orbital elements

Epoch: 2026-09-19T19:43:44.943744Z

Period
93.91 min
Inclination
97.2884°
Eccentricity
0.0002497
Mean motion
15.33451152 rev/d
Perigee alt
463.8 km
Apogee alt
467.2 km
Semi-major
6,843.7 km
B*
6.6468e-4
RAAN
101.7828°
Arg perigee
91.3933°
Mean anomaly
268.7596°
Rev number
1,363

§ Raw data

STARLINK-380411 69742U 26150D   26262.82204796  .00021450  00000+0  66468-3 0  99922 69742  97.2884 101.7828 0002497  91.3933 268.7596 15.33451152 13631

JSON: /api/v1/satellites/69742 · /tle

For live sub-satellite position, see the globe view (requires WebGL).

§ Visibility from observer

Set your observer location to see the next 7 days of passes ≥ 10°. The values pass through the URL so the page stays shareable.

No JS? Fill the form by hand. The geolocation button needs JavaScript.